Weather History for Versailles, OH

Change the Weather History Date:

Saturday, October 13, 2012

  Actual Average (KDAY) Record (KDAY)
Temperature  
Mean Temperature 52 °F 55 °F  
Max Temperature 68 °F 65 °F 86 °F (1975)
Min Temperature 35 °F 45 °F 27 °F (1988)
Degree Days  
Heating Degree Days 14 11  
Month to date heating degree days 116  
Since 1 July heating degree days 206  
Cooling Degree Days 0 0  
Month to date cooling degree days 10  
Year to date cooling degree days 891  
Growing Degree Days 2 (Base 50)    
Moisture  
Dew Point 43 °F    
Average Humidity 73    
Maximum Humidity 88    
Minimum Humidity 51    
Precipitation  
Precipitation 0.01 in 0.10 in 1.33 in (1983)
Month to date precipitation 1.27  
Year to date precipitation 32.88  
Snow  
Snow 0.00 in 0.00 in - ()
Month to date snowfall 0.1  
Since 1 July snowfall 0.1  
Since 1 September snowfall 0.1  
Snow Depth -    
Sea Level Pressure  
Sea Level Pressure 30.17 in    
Wind  
Wind Speed 7 mph (SSE)    
Max Wind Speed 13 mph    
Max Gust Speed 21 mph    
Visibility 10 miles    
Events Rain    
T = Trace of Precipitation, MM = Missing Value Source: NWS Daily Summary

Daily Weather History Graph

Daily Weather History Graph

Search for Another Location

Airport:

Trip Planner

Search our weather history database for the weather conditions in past years. The results will help you decide how hot, cold, wet, or windy it might be!

Date:

Astronomy

Oct. 13, 2012 Rise Set
Actual Time 7:47 AM EDT 7:00 PM EDT
Civil Twilight 7:19 AM EDT 7:27 PM EDT
Nautical Twilight 6:48 AM EDT 7:59 PM EDT
Astronomical Twilight 6:16 AM EDT 8:30 PM EDT
Moon 5:35 AM EDT (10/13) 5:44 PM EDT (10/13)
Length of Visible Light 12h 08m
Length of Day
11h 13m
Waning Crescent, 5% of the Moon is Illuminated
Oct 13
Waning Crescent
Oct 15
New
Oct 21
First Quarter
Oct 29
Full
Nov 6
Last Quarter

Hourly Weather History & Observations

Time (EDT) Temp. Windchill Dew Point Humidity Pressure Visibility Wind Dir Wind Speed Gust Speed Precip Events Conditions
12:35 AM 37.4 °F 32.8 °F 32.0 °F 81% 30.34 in 10.0 mi East 5.8 mph - N/A   Clear
12:55 AM 37.4 °F 32.8 °F 32.0 °F 81% 30.33 in 10.0 mi East 5.8 mph - N/A   Clear
1:55 AM 35.6 °F 31.7 °F 32.0 °F 87% 30.32 in 10.0 mi ESE 4.6 mph - N/A   Clear
2:35 AM 35.6 °F 30.7 °F 32.0 °F 87% 30.32 in 10.0 mi ESE 5.8 mph - N/A   Clear
2:55 AM 35.6 °F 32.8 °F 32.0 °F 87% 30.32 in 10.0 mi SE 3.5 mph - N/A   Clear
3:15 AM 35.6 °F 30.7 °F 32.0 °F 87% 30.31 in 10.0 mi ESE 5.8 mph - N/A   Clear
3:35 AM 35.6 °F 30.7 °F 32.0 °F 87% 30.30 in 10.0 mi SE 5.8 mph - N/A   Clear
3:55 AM 37.4 °F 32.1 °F 32.0 °F 81% 30.29 in 10.0 mi SE 6.9 mph - N/A   Clear
4:15 AM 37.4 °F 32.1 °F 32.0 °F 81% 30.30 in 10.0 mi SSE 6.9 mph - N/A   Clear
4:35 AM 37.4 °F 33.8 °F 32.0 °F 81% 30.31 in 10.0 mi SSE 4.6 mph - N/A   Clear
4:55 AM 37.4 °F 33.8 °F 32.0 °F 81% 30.30 in 10.0 mi SSE 4.6 mph - N/A   Clear
5:15 AM 37.4 °F 33.8 °F 32.0 °F 81% 30.30 in 10.0 mi SSE 4.6 mph - N/A   Clear
5:35 AM 35.6 °F 30.7 °F 32.0 °F 87% 30.29 in 10.0 mi SE 5.8 mph - N/A   Clear
5:55 AM 35.6 °F 32.8 °F 32.0 °F 87% 30.29 in 10.0 mi SE 3.5 mph - N/A   Clear
6:15 AM 37.4 °F 32.1 °F 32.0 °F 81% 30.28 in 10.0 mi SSE 6.9 mph - N/A   Clear
6:35 AM 37.4 °F 32.8 °F 32.0 °F 81% 30.27 in 10.0 mi SSE 5.8 mph - N/A   Clear
6:55 AM 37.4 °F 32.8 °F 32.0 °F 81% 30.27 in 10.0 mi SSE 5.8 mph - N/A   Clear
7:15 AM 37.4 °F 32.8 °F 32.0 °F 81% 30.26 in 10.0 mi SE 5.8 mph - N/A   Clear
7:35 AM 37.4 °F 32.8 °F 32.0 °F 81% 30.26 in 10.0 mi SSE 5.8 mph - N/A   Clear
7:55 AM 37.4 °F 32.1 °F 32.0 °F 81% 30.25 in 10.0 mi SE 6.9 mph - N/A   Clear
8:15 AM 39.2 °F 35.9 °F 32.0 °F 75% 30.27 in 10.0 mi SSE 4.6 mph - N/A   Clear
8:35 AM 39.2 °F 35.0 °F 32.0 °F 75% 30.26 in 10.0 mi SSE 5.8 mph - N/A   Clear
8:55 AM 41.0 °F 35.8 °F 32.0 °F 70% 30.25 in 10.0 mi SSE 8.1 mph - N/A   Clear
9:15 AM 42.8 °F 38.6 °F 32.0 °F 66% 30.24 in 10.0 mi SSE 6.9 mph - N/A   Clear
9:55 AM 44.6 °F 39.7 °F 33.8 °F 66% 30.23 in 10.0 mi South 9.2 mph - N/A   Clear
10:35 AM 51.8 °F - 37.4 °F 58% 30.21 in 10.0 mi SSE 10.4 mph - N/A   Clear
10:55 AM 53.6 °F - 39.2 °F 58% 30.21 in 10.0 mi SSE 10.4 mph - N/A   Clear
11:15 AM 55.4 °F - 41.0 °F 58% 30.19 in 10.0 mi South 11.5 mph 19.6 mph N/A   Clear
11:35 AM 59.0 °F - 41.0 °F 51% 30.19 in 10.0 mi North - - N/A   Clear
11:55 AM 60.8 °F - 42.8 °F 52% 30.18 in 10.0 mi North - - N/A   Clear
12:15 PM 60.8 °F - 44.6 °F 55% 30.17 in 10.0 mi South 10.4 mph - N/A   Clear
12:35 PM 60.8 °F - 44.6 °F 55% 30.17 in 10.0 mi South 9.2 mph 17.3 mph N/A   Clear
12:55 PM 62.6 °F - 46.4 °F 55% 30.16 in 10.0 mi South 10.4 mph 18.4 mph N/A   Clear
1:35 PM 64.4 °F - 50.0 °F 59% 30.15 in 10.0 mi South 8.1 mph 17.3 mph N/A   Clear
1:55 PM 64.4 °F - 50.0 °F 59% 30.14 in 10.0 mi South 6.9 mph - N/A   Clear
2:15 PM 64.4 °F - 50.0 °F 59% 30.12 in 10.0 mi South 8.1 mph - N/A   Clear
2:35 PM 68.0 °F - 50.0 °F 52% 30.10 in 10.0 mi South 9.2 mph - N/A   Clear
2:55 PM 68.0 °F - 50.0 °F 52% 30.09 in 10.0 mi South 9.2 mph - N/A   Scattered Clouds
3:15 PM 68.0 °F - 50.0 °F 52% 30.09 in 10.0 mi South 9.2 mph 19.6 mph N/A   Mostly Cloudy
3:35 PM 68.0 °F - 50.0 °F 52% 30.08 in 10.0 mi SSW 10.4 mph 18.4 mph N/A   Overcast
3:55 PM 68.0 °F - 50.0 °F 52% 30.07 in 10.0 mi South 10.4 mph 17.3 mph N/A   Overcast
4:15 PM 66.2 °F - 51.8 °F 60% 30.06 in 10.0 mi South 9.2 mph 17.3 mph N/A   Mostly Cloudy
4:35 PM 66.2 °F - 51.8 °F 60% 30.05 in 10.0 mi South 5.8 mph - N/A   Mostly Cloudy
4:55 PM 68.0 °F - 51.8 °F 56% 30.05 in 10.0 mi SSW 11.5 mph 17.3 mph N/A   Mostly Cloudy
5:15 PM 66.2 °F - 51.8 °F 60% 30.05 in 10.0 mi South 6.9 mph 17.3 mph N/A   Overcast
5:35 PM 66.2 °F - 51.8 °F 60% 30.05 in 10.0 mi SSW 6.9 mph - N/A   Overcast
5:55 PM 66.2 °F - 53.6 °F 64% 30.05 in 10.0 mi SSW 6.9 mph - N/A Rain Rain
6:15 PM 62.6 °F - 55.4 °F 77% 30.05 in 10.0 mi South 4.6 mph - 0.01 in   Light Drizzle
6:35 PM 62.6 °F - 57.2 °F 82% 30.04 in 10.0 mi South 3.5 mph - 0.01 in Rain Rain
6:55 PM 62.6 °F - 57.2 °F 82% 30.04 in 10.0 mi South 3.5 mph - 0.01 in Rain Light Rain
7:15 PM 62.6 °F - 59.0 °F 88% 30.03 in 10.0 mi South 6.9 mph - N/A   Overcast
7:35 PM 62.6 °F - 59.0 °F 88% 30.03 in 10.0 mi South 6.9 mph - N/A Rain Light Rain
8:35 PM 62.6 °F - 59.0 °F 88% 30.00 in 10.0 mi South 6.9 mph - N/A   Scattered Clouds
8:55 PM 62.6 °F - 59.0 °F 88% 30.00 in 10.0 mi South 6.9 mph - N/A   Clear
10:15 PM 64.4 °F - 60.8 °F 88% 30.00 in 10.0 mi SSW 9.2 mph 18.4 mph N/A   Scattered Clouds
10:35 PM 64.4 °F - 60.8 °F 88% 30.00 in 10.0 mi SSW 11.5 mph 17.3 mph N/A   Overcast
10:55 PM 64.4 °F - 60.8 °F 88% 30.01 in 10.0 mi SSW 9.2 mph - N/A   Overcast
11:15 PM 64.4 °F - 60.8 °F 88% 30.01 in 10.0 mi SSW 12.7 mph 20.7 mph N/A   Overcast
11:55 PM 64.4 °F - 60.8 °F 88% 29.99 in 10.0 mi SSW 11.5 mph 20.7 mph N/A   Overcast